Location: Molino di Ancona
(43.6167°N, 13.3667°E)
Time: 20:51:17
(UTC+00:00)

Cosmos 1536 - Pass Details

Date: 15 December 2019
Orbit: 540 x 559 km, 82.5° (Epoch: 28 January)

Event Time Altitude Azimuth Distance (km) Brightness Sun altitude
Rises 04:49:20 0° 178° (S) 2,732 6.6 -17.9°
Reaches altitude 10° 04:51:30 10° 175° (S) 1,841 5.7 -17.5°
Maximum altitude 04:55:30 61° 95° (E) 636 3.4 -16.8°
Drops below altitude 10° 04:59:32 10° 15° (NNE) 1,851 5.5 -16.1°
Sets 05:01:43 0° 12° (NNE) 2,748 6.3 -15.7°
